Hourly Data Report for September 28, 2017

All times are specified in Local Standard Time (LST). Add 1 hour to adjust for Daylight Saving Time where and when it is observed.

ALERT CLIMATE
NUNAVUT

82°30'00.000" N
62°20'00.000" W
65.40 m
2400305
71355
ZLT

Download Data

Hourly Data (September 2017)
Hourly Data Report for September 28, 2017
Temp Definition
°C
Dew Point Temp Definition
°C
Rel Hum Definition
%
Wind Dir Definition
10's deg

Wind Spd Definition
km/h
Visibility Definition
km
Stn Press Definition
kPa
Hmdx Definition


Wind Chill Definition


Weather Definition


TIME
00:00 -14.9 -16.3 89 30 5   100.00   -18 LegendNANA
01:00 -14.7 -17.4 80 28 8   99.97   -20 LegendNANA
02:00 -14.5 -17.0 81 28 9   99.95   -20 LegendNANA
03:00 -12.7 -15.4 80 27 4   99.95   -15 LegendNANA
04:00 -12.3 -16.2 73 29 1   99.97   -13 LegendNANA
05:00 -12.1 -15.0 79 32 3   99.96   -14 LegendNANA
06:00 -14.2 -16.3 84 0 1   99.90   -15 LegendNANA
07:00 -15.3 -17.3 84 11 3   99.86   -17 LegendNANA
08:00 -15.9 -17.7 86 30 3   99.76   -18 LegendNANA
09:00 -15.8 -16.8 92 8 8   99.73   -21 LegendNANA
10:00 -15.7 -16.9 91 8 1   99.75   -16 LegendNANA
11:00 -13.9 -15.3 89 24 3   99.67   -16 LegendNANA
12:00 -13.4 -15.3 86 11 2   99.66   -15 LegendNANA
13:00 -13.6 -15.2 88 26 9   99.65   -19 LegendNANA
14:00 -13.1 -14.7 87 28 8   99.62   -18 LegendNANA
15:00 -11.7 -14.2 82 15 1   99.65   -12 LegendNANA
16:00 -11.5 -13.6 85   0   99.70     LegendNANA
17:00 -11.5 -13.5 85 0 1   99.72   -12 LegendNANA
18:00 -11.6 -13.2 88   0   99.74     LegendNANA
19:00 -10.8 -12.4 87 29 5   99.77   -14 LegendNANA
20:00 -9.2 -11.8 81 8 8   99.86   -14 LegendNANA
21:00 -8.1 -11.1 79 6 7   99.91   -12 LegendNANA
22:00 -9.6 -10.9 90 6 10   99.97   -15 LegendNANA
23:00 -10.1 -11.0 93 8 1   100.03   -11 LegendNANA

Notes on Data Quality.

Legend

  • E = Estimated
  • M = Missing
  • NA = Not Available
  • ‡ = Partner data that is not subject to review by the National Climate Archives
Date modified: